Theta_e
336 340 347 353 356 359 359 362 362 363 368 355 354 358 359 367 365 369 369 367 369 365 363 361 360 360 361 360 359 360 358 363 364 354 354 357 353 353 355 358 360 357 358 358 354 352 353 355 354 355 358 359 358 355 352 353 353 352 352 351 352 351 351 349 349 350 350 351 352 353 352 348 342 344 350 354 352 350 349 348 349 348 347 351 353 350 348 350 352 353 351 349 347 347 347 347 347
340 346 352 357 358 361 361 363 364 361 362 350 352 361 361 370 369 368 368 367 368 362 362 360 357 358 358 356 356 360 359 357 360 358 354 352 351 353 354 358 358 356 358 357 357 356 357 356 355 356 358 358 358 355 351 351 352 352 351 351 351 350 350 349 350 353 354 355 354 352 348 342 341 347 351 352 350 350 350 348 349 348 348 351 352 350 348 350 352 352 351 350 348 348 347 347 347
349 353 355 361 360 361 363 365 363 354 355 351 355 368 367 371 371 366 366 365 363 360 360 359 358 357 357 360 361 365 362 355 354 353 351 352 354 352 354 357 356 356 357 357 358 357 357 356 355 357 357 358 357 355 352 351 352 351 350 350 350 351 351 350 352 354 355 355 354 347 341 340 344 349 350 350 350 351 351 350 349 347 348 351 352 351 350 351 352 352 352 351 349 348 346 346 347
355 357 359 360 361 363 365 369 366 353 353 353 356 368 370 370 369 365 365 362 357 359 358 360 362 358 358 363 362 363 361 356 354 353 354 355 354 351 354 355 356 356 355 356 357 357 356 355 356 357 357 357 356 356 354 353 353 352 351 352 352 352 352 352 353 354 355 355 350 343 341 344 347 348 348 349 351 353 352 351 351 349 348 351 352 351 351 352 352 352 352 351 350 348 346 347 347
356 359 360 359 363 366 367 370 365 354 354 353 352 363 369 367 366 364 367 363 358 363 362 361 362 358 358 361 361 364 362 357 354 354 354 355 353 353 354 356 357 355 356 356 356 358 356 355 356 356 356 356 356 356 355 354 354 354 354 353 354 353 353 353 354 356 355 350 344 343 345 347 348 348 349 350 352 353 352 352 352 349 348 350 352 351 350 351 352 351 351 351 350 349 348 347 345
357 361 360 360 363 363 367 364 356 351 359 360 358 365 368 364 365 364 366 367 365 364 361 362 361 359 360 359 359 361 361 359 358 355 353 355 353 354 355 355 355 356 356 356 357 358 356 355 356 355 355 355 356 356 355 355 354 354 354 354 354 354 354 355 356 356 352 347 345 348 350 350 351 351 351 351 352 352 352 352 352 351 350 351 351 350 351 351 350 351 350 350 351 350 348 347 345
360 363 361 363 361 363 367 357 353 355 362 367 366 368 368 364 365 366 366 367 366 362 360 362 360 361 362 359 359 360 359 358 360 357 353 355 353 354 354 355 355 355 357 357 359 358 356 356 356 355 355 355 356 355 355 354 353 353 354 354 355 355 355 356 356 354 351 349 351 353 354 352 351 353 353 353 353 352 352 351 351 352 351 350 350 350 351 349 349 351 351 351 351 350 348 346 346
361 362 363 366 366 368 366 357 358 362 362 365 367 367 367 365 366 367 366 366 366 363 362 362 361 364 364 360 363 362 359 356 358 355 353 355 354 354 354 355 355 355 358 360 359 358 356 356 356 355 353 354 354 354 355 353 353 353 355 356 355 355 356 356 354 353 351 352 354 354 354 353 353 354 354 354 354 352 350 350 350 351 351 350 350 351 351 350 349 349 350 350 350 350 349 346 345
361 362 361 365 365 362 360 359 361 363 364 365 365 365 365 366 366 366 365 367 365 363 364 365 363 364 364 363 365 362 360 358 356 354 353 355 355 354 354 354 355 355 359 360 359 358 357 356 355 355 354 354 354 354 354 354 353 354 356 357 356 356 356 355 352 352 352 353 355 353 353 353 353 353 354 354 354 352 348 348 348 350 350 349 349 349 350 350 350 349 349 349 349 350 351 348 345
363 364 362 365 357 342 344 356 361 365 366 365 365 365 365 365 366 366 366 367 366 365 365 363 363 364 363 364 365 362 362 359 357 355 354 354 355 354 354 354 355 357 360 360 358 358 357 356 354 355 354 353 353 354 354 355 356 356 356 356 356 356 355 353 351 353 352 354 354 352 352 353 352 352 353 354 354 352 348 348 347 347 348 345 346 348 349 351 350 349 349 349 349 349 350 349 346
362 361 361 361 344 329 333 349 359 365 366 366 367 365 366 365 366 366 366 366 364 366 364 363 364 363 363 365 364 362 361 359 357 356 353 354 354 354 354 354 354 357 360 359 358 358 357 356 355 355 355 353 353 354 355 357 357 357 356 356 356 354 354 352 351 353 353 352 352 352 351 350 350 351 353 354 354 352 348 348 347 347 347 346 345 346 350 351 348 348 349 349 349 349 349 350 348
354 356 359 353 335 332 340 349 358 365 365 365 367 366 364 364 366 365 365 365 364 366 365 364 364 362 364 366 363 360 360 358 355 355 353 353 354 354 354 354 355 357 360 359 359 359 357 356 356 356 356 354 353 354 355 356 356 356 356 356 355 353 352 351 351 352 352 352 351 352 351 349 350 351 352 353 354 352 350 349 348 347 347 347 345 345 350 351 348 347 349 350 349 349 349 350 350
348 349 351 343 335 343 348 349 359 364 363 365 366 365 362 364 366 364 364 363 362 364 364 362 360 361 365 364 361 359 360 357 355 355 353 353 354 353 354 353 353 357 360 359 359 359 358 356 356 356 356 355 354 355 355 356 356 356 356 355 354 354 350 349 351 352 353 352 351 351 351 350 349 350 352 352 354 352 350 349 348 348 348 347 347 347 349 351 350 348 348 348 347 347 348 349 349
343 346 347 342 342 348 346 347 351 353 356 366 364 361 363 363 363 361 361 364 364 363 363 362 359 361 363 363 361 359 359 356 355 355 353 353 354 353 353 353 353 356 358 358 359 359 359 359 358 356 355 355 355 356 357 357 357 356 356 355 354 353 346 347 352 352 353 352 352 352 350 351 349 349 349 350 354 351 348 350 349 349 349 348 348 349 348 350 351 349 347 346 345 344 345 347 348
341 345 346 342 342 343 345 347 347 348 353 366 365 361 362 360 361 360 360 364 365 359 361 361 359 362 362 363 362 359 358 356 355 354 353 354 354 354 353 353 354 355 356 358 359 359 359 359 359 356 356 357 356 356 358 356 356 356 356 355 354 352 347 347 352 352 352 352 351 352 350 349 347 348 348 346 350 351 350 351 350 349 350 349 349 348 348 348 349 349 348 347 346 343 342 344 346
340 342 343 340 336 337 343 348 348 352 356 364 362 361 363 362 361 360 359 360 362 358 361 362 359 362 361 362 361 358 358 356 355 355 355 355 356 355 354 354 354 354 356 357 358 358 358 359 360 358 358 359 357 357 357 356 355 355 355 354 353 352 350 349 352 353 352 352 352 353 350 346 345 346 346 345 347 350 351 350 348 349 349 349 349 348 347 348 347 347 348 349 348 345 343 343 345
337 340 342 335 333 337 344 353 350 351 360 362 361 361 364 365 360 358 357 357 360 359 361 362 361 362 361 361 359 357 357 356 355 355 356 356 357 355 354 355 355 354 355 357 357 358 357 358 360 359 359 359 358 359 357 357 355 355 355 353 352 351 352 351 352 353 350 350 352 352 349 346 348 350 347 349 351 351 353 350 347 348 348 348 349 348 347 348 347 346 346 348 349 348 346 346 346
336 340 339 331 337 344 346 354 351 354 364 360 362 362 363 366 360 357 358 360 360 360 361 360 361 361 361 359 358 357 356 355 355 355 356 357 357 354 355 356 356 354 354 355 356 357 358 358 359 359 359 357 358 358 357 357 354 355 355 354 353 349 348 351 352 352 349 348 350 347 345 349 356 356 352 353 354 352 353 351 348 347 347 348 348 348 349 349 348 346 347 348 349 350 349 349 348
335 338 337 335 345 349 347 350 351 358 363 361 362 361 362 363 359 356 360 361 361 361 361 361 360 361 360 358 356 356 355 354 355 356 356 357 357 355 356 356 354 354 353 353 355 357 357 357 358 360 358 356 357 357 356 357 354 356 356 354 354 350 346 348 350 352 352 353 353 348 347 354 358 356 352 353 352 350 352 351 348 348 348 349 349 348 348 350 349 346 347 349 350 350 350 350 351
333 338 338 340 347 347 348 350 350 355 359 360 358 357 362 361 360 359 359 359 360 361 360 361 363 362 359 357 355 356 355 356 356 357 357 355 356 356 358 357 354 353 352 352 354 355 356 356 357 359 358 356 357 356 355 357 356 357 358 356 355 353 351 350 352 354 355 356 357 354 353 356 355 352 351 351 348 348 351 351 349 349 349 350 351 350 348 349 349 348 347 349 351 351 351 351 352
335 340 339 342 346 346 348 349 349 353 355 357 357 360 364 360 359 360 360 361 362 362 359 360 363 361 359 357 356 356 357 357 357 358 356 353 354 356 357 356 355 353 351 351 352 352 354 354 356 360 360 358 356 356 354 355 357 357 356 357 356 356 356 355 356 356 357 357 357 357 355 354 352 348 348 349 347 346 351 351 347 347 348 349 351 351 350 349 348 350 350 351 352 352 352 352 352
336 340 342 343 345 348 349 348 350 352 352 353 357 363 364 360 360 359 360 363 362 361 359 358 359 359 359 357 356 356 356 357 358 358 356 355 356 356 356 356 356 353 351 349 350 351 351 351 354 359 361 360 357 356 354 352 356 356 353 355 355 355 357 357 357 357 357 357 357 356 354 350 347 347 345 346 347 345 348 350 347 345 346 348 349 350 352 351 349 350 351 352 352 352 352 352 352
339 342 343 343 344 348 349 349 351 352 354 356 358 360 361 362 361 360 359 360 359 357 356 356 356 357 358 358 356 357 357 357 360 360 357 358 357 355 356 356 356 355 352 350 350 349 348 349 352 357 360 360 358 356 353 352 353 353 350 350 351 352 353 353 354 353 354 355 355 355 351 347 344 344 344 343 346 345 344 348 348 344 344 347 348 349 350 352 351 351 352 352 352 351 353 353 351
341 343 344 344 345 346 348 352 355 356 357 358 358 357 359 361 361 360 360 359 356 355 354 354 355 357 357 357 355 356 358 359 361 361 360 360 359 360 360 358 356 353 351 351 349 347 345 346 351 355 359 358 358 356 353 351 352 350 348 347 349 350 350 350 350 349 349 351 353 353 350 346 344 343 342 341 344 345 342 344 346 345 345 345 347 348 347 350 352 352 353 352 351 350 351 353 354
339 342 344 345 346 348 350 353 355 355 356 356 358 358 358 359 360 360 359 360 356 355 355 354 355 355 354 353 355 357 358 359 360 360 360 361 361 361 360 358 356 353 352 352 349 347 344 345 349 353 356 357 356 355 353 351 350 349 348 348 349 349 350 350 349 348 347 347 349 352 351 347 343 342 339 339 341 341 342 342 342 344 346 344 345 347 347 348 351 352 354 353 351 350 350 352 354
338 342 345 344 346 349 352 354 354 355 355 354 357 357 357 357 358 360 356 357 354 353 353 354 354 353 352 353 355 357 356 358 359 359 360 360 361 360 360 360 357 356 355 353 350 348 346 345 348 349 353 355 354 353 353 351 350 350 348 348 349 349 350 350 348 346 345 345 346 348 349 347 345 341 339 340 340 339 341 342 340 341 346 346 343 345 347 348 350 351 352 353 353 352 351 351 352
339 341 344 344 346 349 350 353 354 355 354 353 354 355 355 354 358 362 356 355 353 352 351 352 352 352 353 354 355 357 357 357 357 358 359 359 359 360 361 360 358 357 357 356 352 350 349 346 346 347 350 353 353 353 352 352 350 350 350 349 348 349 349 349 349 347 345 343 342 343 345 347 347 345 341 340 339 340 340 343 341 340 344 345 343 345 348 348 349 349 350 353 354 353 352 352 352
340 339 344 344 345 349 351 355 355 355 354 353 356 358 357 351 357 362 357 354 354 355 353 352 353 354 353 354 356 357 358 357 357 358 359 359 358 358 360 360 359 359 360 360 355 352 352 350 349 346 349 352 352 352 352 352 351 350 351 350 349 349 348 348 349 348 345 342 342 342 344 347 349 349 345 342 341 340 340 342 342 340 341 343 344 344 346 349 349 348 351 353 354 353 352 353 353
337 337 344 346 346 350 353 356 356 356 355 355 357 356 354 356 356 356 357 355 357 357 356 353 352 354 353 355 356 356 357 356 357 358 359 358 356 357 358 358 360 359 360 358 355 356 356 356 355 350 352 353 351 353 353 353 354 354 354 353 355 354 351 350 349 349 347 346 346 344 343 346 350 351 347 344 342 341 341 341 341 341 340 342 345 346 346 349 350 349 349 352 352 352 353 354 353
333 337 342 345 346 349 354 356 356 358 356 358 355 345 348 359 356 351 356 358 357 356 356 354 352 355 354 355 357 356 357 357 357 357 357 357 356 358 358 357 360 359 358 357 355 359 359 359 359 355 357 356 354 357 356 354 355 356 356 356 356 355 353 352 351 350 350 349 349 347 346 347 349 352 349 345 342 342 343 343 344 344 343 342 343 346 346 347 350 349 349 350 352 352 352 352 353
331 331 336 340 334 338 354 353 354 360 356 359 354 341 345 359 355 352 357 359 358 355 354 356 356 356 356 356 357 357 358 358 358 357 357 358 357 357 358 357 358 358 358 358 355 357 357 357 358 356 358 358 359 358 355 354 355 354 355 354 352 352 351 351 351 350 351 352 352 351 350 351 351 351 351 348 345 344 345 346 346 346 346 344 343 344 346 348 349 350 350 349 350 350 350 350 350
331 323 321 330 330 336 356 351 351 359 357 359 353 342 347 358 356 353 356 358 357 354 353 355 357 359 358 358 359 358 358 359 357 356 356 358 358 356 357 357 357 358 358 358 355 355 356 355 354 354 355 356 357 357 355 354 354 354 353 351 349 348 348 349 351 351 351 352 352 352 352 353 352 352 352 352 350 349 349 348 347 347 347 345 344 344 344 348 350 351 351 350 350 351 351 351 352
329 323 313 318 331 338 351 349 349 354 356 360 353 347 350 356 358 355 355 357 355 352 352 354 355 359 360 358 359 358 357 358 358 358 357 357 356 356 356 356 357 357 357 358 358 358 358 357 356 354 352 352 353 353 353 352 351 351 349 349 350 349 346 348 350 350 350 350 352 353 353 353 353 352 352 353 353 351 352 351 349 348 348 345 345 346 344 346 348 350 352 351 351 353 351 352 354
320 323 317 319 335 337 340 344 348 349 352 355 353 353 352 351 356 355 354 356 354 351 351 354 355 356 358 358 357 357 357 357 358 359 358 358 357 357 357 357 356 358 356 357 358 358 358 359 358 357 356 355 355 354 354 354 354 354 352 351 351 351 350 351 352 352 350 350 352 354 354 354 354 352 351 351 353 353 353 351 349 348 348 347 347 348 346 346 348 349 350 351 352 353 351 352 352
315 317 316 320 330 333 336 342 347 350 348 350 351 353 356 353 354 355 354 355 353 352 352 353 354 353 355 357 357 357 357 358 358 359 359 358 359 358 358 358 358 358 357 356 357 357 357 357 358 359 359 358 358 358 357 358 358 358 357 356 354 354 355 356 355 354 354 353 354 354 355 355 354 353 352 351 352 353 353 351 349 349 349 349 349 349 348 349 349 349 351 351 353 353 353 352 352
322 320 319 319 321 327 340 343 343 350 347 349 350 351 357 356 354 355 352 351 351 353 354 353 355 353 351 354 356 358 358 357 358 359 359 358 358 358 359 359 359 358 359 358 358 357 357 357 358 358 358 358 358 359 359 359 359 358 358 358 357 357 356 356 356 355 355 355 356 356 356 355 354 354 354 353 352 352 352 351 350 350 349 350 349 348 349 349 350 350 351 351 353 353 353 353 351
328 326 321 322 321 324 339 344 342 347 348 350 353 351 357 356 354 355 352 353 353 352 355 356 356 355 352 353 357 359 359 358 358 358 359 358 357 358 359 359 359 358 359 359 360 359 358 358 358 358 357 358 358 358 358 358 358 358 357 358 358 357 357 357 357 356 356 356 356 356 355 355 354 354 355 355 354 352 352 352 352 350 349 350 350 350 350 351 351 351 351 352 353 353 353 354 352
329 324 320 321 323 327 339 347 346 346 352 355 356 352 356 356 354 354 354 357 356 354 356 355 354 354 355 355 358 360 359 359 358 358 359 360 359 359 360 359 358 359 359 358 359 359 360 359 359 359 358 358 358 358 358 358 357 357 356 357 358 358 357 356 356 356 356 356 355 355 355 354 353 354 354 354 354 354 353 352 353 351 349 352 353 353 352 353 352 351 353 353 353 354 353 352 352
328 323 320 320 325 335 340 348 350 346 352 355 354 354 355 358 356 355 356 358 355 353 355 355 354 354 354 357 359 359 359 360 360 359 358 359 360 359 358 360 359 359 359 359 359 359 360 360 358 358 358 358 359 358 358 358 358 358 357 357 357 357 356 355 355 355 355 355 355 355 355 353 353 354 354 353 353 354 354 352 352 352 352 354 356 355 354 355 353 352 355 355 354 354 354 351 352
328 324 317 319 325 330 330 340 349 345 348 351 352 355 355 358 356 355 355 355 354 355 355 355 354 353 355 358 359 359 359 361 360 359 359 358 359 359 359 359 359 358 359 357 359 359 358 357 356 357 357 357 359 358 357 357 357 357 357 357 355 355 355 355 355 355 355 355 356 355 355 354 354 354 354 353 354 355 355 353 352 352 353 354 356 356 355 355 355 354 356 356 355 354 353 351 351
326 326 320 321 325 330 333 341 345 345 348 351 354 349 348 355 357 357 355 356 356 357 356 356 356 355 358 359 357 358 358 359 359 359 358 357 359 360 360 360 359 358 358 356 357 358 356 356 356 357 356 356 358 358 357 357 357 356 355 355 354 354 354 354 353 354 354 355 356 355 355 355 355 355 355 354 355 355 355 355 354 353 354 355 357 356 354 354 355 355 355 356 355 355 354 351 350
319 326 328 326 331 337 342 342 340 335 336 348 350 336 335 348 355 357 358 359 358 357 356 355 356 357 357 358 357 356 356 357 357 356 356 357 358 359 358 359 359 360 359 359 359 359 358 358 359 358 356 356 358 357 357 357 356 355 355 354 354 354 354 353 353 353 352 354 356 356 355 355 355 356 355 355 355 355 355 355 354 355 355 355 355 355 354 353 354 355 355 355 355 356 355 352 351
313 325 331 331 334 338 337 337 330 321 326 344 346 331 329 338 348 356 358 359 359 357 357 355 356 356 355 357 356 354 355 355 355 355 354 355 355 355 356 357 358 359 359 360 360 360 359 360 361 360 357 357 358 358 357 357 356 356 355 354 353 354 354 353 353 352 351 352 354 355 354 353 354 354 353 354 354 355 355 354 354 355 354 355 355 355 355 354 353 354 355 355 355 355 354 353 352
315 326 331 331 335 335 334 332 325 323 329 338 339 335 327 327 342 357 357 358 359 357 357 357 356 356 354 355 354 353 353 353 353 353 352 352 352 353 353 354 355 356 356 357 357 357 358 358 359 359 359 358 358 357 357 357 357 355 354 354 353 354 354 353 352 352 351 352 354 354 354 354 353 352 352 353 354 355 355 354 353 355 355 355 355 354 354 355 354 353 354 354 353 353 354 354 353
323 330 330 331 334 337 335 330 325 329 332 327 330 332 324 322 340 358 355 355 358 359 358 357 356 356 354 352 352 352 350 349 349 348 348 348 349 349 350 351 352 352 352 352 353 354 354 355 355 356 357 357 358 358 358 357 357 356 355 355 355 354 354 354 353 354 353 353 354 355 356 356 354 353 352 352 353 353 353 353 354 356 355 354 356 354 353 356 355 354 355 355 353 353 355 354 352
328 331 330 332 333 333 338 334 326 331 333 325 325 326 321 323 337 350 351 351 356 360 358 356 355 354 353 352 349 347 346 346 346 344 346 345 345 346 346 348 347 348 349 350 350 351 352 353 353 354 355 355 355 356 357 357 358 358 356 356 355 354 353 354 354 353 354 354 355 355 356 356 355 354 354 352 353 354 354 354 355 356 355 354 355 356 355 356 355 355 355 353 353 354 355 354 352
329 330 330 328 331 337 343 339 330 331 335 329 324 325 322 321 333 345 350 352 354 357 357 355 354 353 352 350 346 345 344 344 344 344 345 346 346 346 346 346 346 346 347 347 348 349 350 351 350 351 351 351 351 352 353 353 355 356 356 356 356 355 353 353 353 354 353 354 355 355 355 356 356 355 355 353 353 355 354 354 355 355 354 354 355 355 355 355 356 357 355 351 352 354 355 355 352
328 331 326 321 325 332 336 334 333 333 334 330 327 329 323 321 333 348 353 353 351 353 354 354 354 352 350 348 345 344 343 344 344 344 346 347 348 348 347 347 347 347 346 346 347 348 348 348 348 349 348 348 349 348 349 349 350 352 352 353 354 354 354 354 354 354 354 355 354 354 354 354 355 355 355 355 354 355 355 355 355 355 355 355 354 353 353 354 355 355 354 351 352 353 355 355 353
328 328 319 315 320 324 324 326 330 330 329 330 332 332 332 335 345 354 354 351 349 350 351 350 351 351 348 345 344 342 342 341 342 343 344 345 345 345 345 346 346 347 346 346 347 347 347 347 346 348 348 348 348 348 348 349 349 349 349 350 350 351 352 352 353 354 354 355 355 355 354 354 356 355 354 354 354 354 354 355 354 355 355 354 353 353 352 352 352 352 352 351 351 352 354 355 353
325 323 314 313 320 322 321 323 324 322 321 327 336 336 337 343 351 356 352 348 348 349 348 348 348 347 345 343 343 341 339 340 340 341 342 342 343 342 342 343 344 345 345 345 345 347 347 346 346 345 346 346 346 346 348 348 347 348 348 348 349 349 350 349 349 351 351 352 354 354 354 354 355 355 354 354 353 353 352 354 355 356 355 354 353 352 352 352 352 352 352 351 350 352 354 353 353
326 329 323 315 315 318 320 319 317 316 319 324 330 334 335 340 349 355 349 347 348 347 346 347 346 346 344 342 341 340 340 339 340 340 341 343 343 343 342 343 342 342 342 342 343 345 345 345 344 343 343 345 345 345 346 346 346 347 347 347 348 348 349 349 349 349 349 349 350 351 352 352 353 353 354 354 354 353 352 353 355 356 356 355 353 352 352 353 353 353 353 351 350 353 355 353 352
327 330 325 317 317 320 317 316 315 315 320 327 330 335 342 347 351 353 347 348 348 348 347 346 347 346 343 342 340 339 340 340 340 340 341 342 343 343 342 341 341 341 341 341 343 343 342 343 343 342 341 343 342 342 344 343 344 346 345 345 346 346 346 347 348 348 348 348 349 349 349 350 350 349 351 352 353 354 354 353 355 355 355 354 352 353 353 353 354 354 354 354 355 356 355 353 351
326 324 318 323 329 328 316 313 316 313 317 328 331 337 351 354 352 350 348 348 348 347 348 346 346 347 343 342 341 340 341 341 341 340 341 343 342 342 341 339 339 341 340 340 342 343 341 341 342 342 341 343 342 342 342 341 342 343 343 342 344 344 344 345 346 347 347 347 347 348 349 348 348 348 347 348 349 351 353 354 354 355 355 354 353 353 354 355 356 356 354 355 357 358 357 356 354
324 317 322 329 330 329 319 313 314 313 317 326 326 332 345 344 343 351 352 351 350 348 349 348 348 346 345 344 342 342 342 340 339 341 341 342 341 340 340 339 338 339 340 339 339 340 341 340 341 341 341 341 341 341 341 341 341 341 341 341 342 343 343 344 345 345 345 346 347 347 347 347 346 345 345 345 346 348 350 352 354 355 355 355 354 353 353 354 356 356 355 354 355 357 358 357 355
327 323 330 329 318 318 317 313 314 314 317 324 324 331 339 334 336 348 352 352 351 350 350 349 348 348 346 345 343 343 342 340 340 341 341 342 341 340 340 339 338 337 339 338 337 338 339 340 339 340 340 341 341 341 341 341 340 340 341 342 343 343 343 344 344 344 345 345 346 346 346 346 345 344 344 344 346 347 349 351 353 354 355 356 357 355 354 354 354 355 356 355 355 356 357 355 351
330 328 332 328 320 317 316 315 316 314 315 322 328 336 338 335 341 350 350 353 352 350 351 349 349 348 348 346 344 343 341 342 342 342 341 342 341 340 338 338 337 337 336 336 336 337 338 338 339 340 340 341 341 341 342 341 341 341 342 343 343 344 344 344 343 344 344 345 345 346 345 345 345 345 345 345 346 348 350 351 352 353 354 356 356 356 355 354 353 354 355 354 356 356 356 356 352
324 321 321 322 322 322 320 318 315 315 317 320 330 338 337 339 350 352 349 351 350 350 352 350 348 348 348 347 346 343 342 342 341 341 341 340 339 339 337 337 336 337 336 336 335 335 334 336 338 339 339 340 341 341 341 342 342 343 344 343 343 343 343 344 344 344 344 345 344 345 345 345 344 345 346 346 347 348 349 349 350 352 354 354 354 354 355 355 354 353 353 353 354 356 356 356 355
326 321 320 320 320 318 316 317 316 316 317 318 326 336 338 344 349 349 348 347 347 348 347 346 347 347 347 347 344 345 344 341 340 339 340 339 338 338 337 337 336 337 338 337 336 335 334 336 338 339 340 340 340 341 340 341 343 343 344 344 343 344 343 344 344 344 344 344 344 344 344 344 345 345 345 346 346 347 346 347 347 350 352 353 353 353 354 355 355 353 352 353 354 354 354 355 356
Wind_Speed
10 10 10 8 5 4 2 0 1 1 1 2 1 2 1 1 2 3 3 1 2 1 2 5 8 7 5 9 11 12 13 12 8 3 5 9 20 22 21 26 25 23 24 23 25 24 21 21 22 22 22 23 23 22 21 20 20 19 19 19 18 17 16 15 15 15 14 13 13 13 11 10 11 12 11 8 7 8 9 10 10 9 9 9 9 9 10 10 10 10 9 9 9 9 9 9 9
11 10 9 7 5 3 0 1 1 1 0 1 1 2 4 3 2 0 2 3 2 3 4 6 8 7 7 10 11 13 15 16 13 10 10 19 23 21 24 25 24 23 23 23 24 23 19 20 21 22 22 22 23 22 21 20 20 19 19 19 18 17 16 15 15 14 13 13 13 12 10 11 12 12 10 8 7 7 8 9 8 9 9 9 9 10 11 10 10 10 9 9 9 8 8 9 11
10 10 9 7 4 2 0 1 1 1 1 1 2 2 4 4 3 3 4 3 5 5 5 7 7 7 8 12 13 12 12 13 16 12 11 20 18 19 25 23 24 23 22 23 22 23 19 20 22 21 22 22 23 22 21 20 19 19 19 18 18 17 16 15 15 13 13 12 11 10 10 12 12 11 10 8 7 7 8 8 7 8 9 9 9 10 10 10 9 10 9 8 9 8 7 9 11
6 6 9 5 1 1 0 1 1 1 1 0 0 1 2 3 4 5 7 2 7 6 6 8 7 7 9 12 11 10 10 11 15 12 9 16 17 22 25 23 24 22 22 22 21 22 20 21 22 21 22 22 22 22 21 20 19 19 18 18 17 17 16 15 14 13 12 11 10 10 12 12 12 11 9 8 7 7 8 8 7 7 7 7 8 9 9 9 9 9 9 9 9 8 7 9 10
3 2 7 5 1 1 1 1 1 0 2 0 2 2 3 3 4 7 9 3 5 7 9 9 5 5 10 11 7 6 9 9 11 11 13 18 21 25 25 23 23 21 21 21 21 21 22 22 22 22 22 22 22 22 21 20 20 19 18 18 17 16 16 15 14 13 11 10 11 12 12 12 10 10 9 7 7 7 7 7 7 6 6 7 7 8 8 8 8 8 9 9 9 8 7 9 10
6 3 6 5 3 2 1 1 1 1 3 2 3 3 4 5 2 5 10 9 10 15 16 11 5 5 9 9 8 6 5 3 2 8 16 20 23 24 24 22 21 21 21 20 21 21 23 23 22 22 22 21 21 22 22 20 20 19 18 17 17 16 15 14 13 12 11 11 12 12 11 10 9 8 8 7 7 7 7 7 6 5 6 6 6 6 7 7 7 8 9 10 10 8 7 8 9
8 5 3 3 3 1 1 1 1 2 3 3 4 4 5 4 0 1 5 7 10 13 12 8 3 5 6 2 7 7 6 1 4 9 19 22 24 24 22 21 21 21 20 20 21 22 22 22 22 22 21 21 21 21 21 20 19 18 18 17 16 15 14 13 12 12 12 12 12 11 10 9 8 7 7 6 6 6 6 6 6 6 6 5 6 6 7 7 7 8 8 10 10 9 7 8 10
11 6 2 1 1 1 1 1 2 3 3 3 6 7 5 3 1 3 4 5 6 5 3 1 3 3 5 1 5 5 7 4 3 13 22 24 25 22 22 21 22 21 20 21 21 22 22 22 22 21 21 21 20 20 19 19 18 17 17 16 15 14 13 12 12 12 12 12 11 10 9 8 7 6 6 6 5 5 5 5 6 6 6 5 5 6 7 7 7 8 8 9 9 8 8 8 8
7 5 2 2 3 1 1 3 4 4 4 3 6 8 5 5 4 4 3 5 5 2 1 0 1 2 5 6 5 2 6 4 1 16 22 23 24 21 21 21 21 22 21 21 22 21 20 21 21 21 21 20 20 19 18 18 18 17 16 15 14 13 13 12 12 12 12 12 11 10 9 7 7 6 6 5 4 4 5 4 5 5 5 5 5 5 5 6 7 8 8 8 9 9 8 7 7
3 5 3 2 5 0 3 5 2 1 3 2 5 8 5 4 5 5 4 5 5 4 2 1 4 6 6 6 3 1 6 9 4 16 21 20 22 20 21 21 20 22 22 21 23 21 19 20 21 21 20 20 19 18 18 18 17 16 15 15 14 12 12 12 12 13 12 11 10 9 8 7 6 6 5 5 3 3 4 4 4 3 3 4 4 5 5 6 7 8 8 8 9 9 9 8 8
2 4 3 3 5 4 6 6 5 1 1 2 4 5 4 4 6 6 4 6 6 6 3 2 5 8 6 4 2 4 8 9 3 12 21 19 19 20 21 21 19 21 22 22 22 21 20 20 20 20 19 19 19 18 18 17 17 15 15 14 13 12 12 12 12 12 11 11 10 9 7 7 7 6 5 4 3 2 3 4 4 2 2 2 2 3 4 5 6 7 7 8 8 9 10 9 10
4 3 3 4 4 7 6 5 6 3 1 1 2 2 3 5 6 7 6 5 6 7 7 5 1 2 5 4 1 4 7 2 5 9 18 19 18 20 20 21 20 20 22 21 21 21 21 19 18 18 18 18 18 17 17 17 17 15 14 14 13 12 11 12 13 12 11 10 10 9 7 7 7 6 5 4 2 1 2 4 4 3 2 1 0 2 4 5 5 6 6 7 8 9 10 10 11
6 5 3 4 6 8 6 4 4 6 3 2 2 1 1 4 6 7 7 7 7 6 5 5 3 2 4 4 1 2 3 4 10 10 15 17 17 19 19 21 20 20 21 20 21 21 20 20 19 18 17 17 17 16 16 16 15 14 14 13 13 12 12 13 13 12 11 10 9 8 7 7 7 7 6 5 3 1 1 3 4 3 3 3 2 2 4 5 4 5 6 6 8 9 10 10 11
5 4 5 5 6 8 6 3 2 6 5 4 5 3 2 4 6 7 9 8 6 3 2 4 3 3 4 3 1 1 2 7 11 11 14 15 17 18 18 20 20 19 20 19 20 20 20 19 19 18 18 16 16 15 14 14 14 13 13 12 13 12 13 14 13 12 11 10 8 7 7 7 7 7 7 6 4 2 1 2 3 4 4 4 3 2 3 4 4 5 5 6 7 8 9 10 11
4 4 5 4 6 6 5 4 4 7 5 7 6 2 5 7 6 8 9 6 1 2 2 4 5 1 2 2 3 3 6 12 11 10 13 16 18 19 17 19 20 17 17 18 19 19 19 19 19 19 17 16 15 15 14 13 13 13 12 11 12 11 12 13 12 11 10 9 8 7 6 6 7 6 5 5 4 3 0 2 3 5 5 4 4 4 4 4 4 4 5 5 6 6 8 9 10
5 5 4 4 7 7 8 8 7 6 6 10 8 6 10 6 5 9 7 7 3 2 2 4 4 2 2 3 6 5 7 15 14 12 18 18 17 19 18 19 18 17 17 18 18 17 18 18 18 18 17 16 15 15 14 13 13 12 11 11 11 11 10 11 11 10 9 9 8 7 6 6 6 5 4 3 3 3 2 3 4 5 5 4 4 4 5 5 4 4 4 5 6 6 6 7 9
5 5 3 5 8 8 9 10 8 5 6 10 8 8 8 3 5 9 7 8 8 4 5 6 5 4 4 7 7 6 7 12 12 14 18 14 12 15 16 16 15 15 16 16 17 17 16 17 17 17 17 16 16 16 15 14 14 13 12 10 10 11 10 10 10 9 9 9 7 7 7 6 5 4 3 3 3 3 4 4 4 4 4 4 4 3 5 5 4 4 4 5 6 6 6 6 7
4 3 5 7 8 8 9 10 9 7 9 8 5 8 8 5 6 7 6 8 9 7 7 7 6 5 5 8 7 8 12 14 11 10 13 11 11 12 10 12 14 14 15 14 16 17 16 17 16 15 15 16 15 15 14 14 14 14 13 11 10 10 10 10 9 9 8 7 6 5 7 6 6 6 4 5 6 5 6 5 3 4 4 4 4 2 3 4 5 4 5 5 5 6 7 6 6
3 4 7 7 7 7 7 9 10 9 9 5 2 8 10 8 5 5 6 7 7 7 7 7 8 5 4 8 9 11 15 16 13 10 11 10 10 10 8 11 14 13 15 15 15 16 16 17 16 14 14 15 14 12 13 12 11 14 13 11 11 9 9 9 8 8 7 7 6 4 6 7 7 7 6 5 7 7 7 7 5 4 4 5 4 3 4 5 5 4 5 5 4 5 7 6 6
4 6 6 7 9 8 7 9 10 8 7 7 7 10 11 10 5 4 8 7 6 6 4 6 8 6 5 7 8 11 13 13 13 10 11 11 7 9 9 10 12 13 14 15 15 16 15 16 16 14 14 15 13 11 11 11 10 12 13 11 11 10 9 9 9 9 9 8 8 6 6 7 6 8 7 7 9 8 8 10 8 5 6 6 6 5 4 6 6 6 6 5 4 5 6 7 9
6 9 8 9 10 8 9 10 9 8 8 11 9 9 10 7 5 5 9 6 7 4 2 6 8 8 7 6 5 8 10 10 12 13 14 12 9 9 10 10 10 11 13 14 15 16 16 16 16 14 13 13 13 11 11 11 11 11 12 11 11 11 10 10 10 10 10 9 9 7 7 7 6 7 9 9 8 9 11 14 11 7 7 7 8 7 6 8 8 8 7 6 6 6 8 9 10
5 12 12 11 9 7 9 10 10 10 11 11 9 8 7 5 5 9 11 8 6 3 4 8 9 8 8 8 6 7 9 8 9 13 14 13 12 9 10 11 9 8 10 13 13 15 16 16 16 15 14 14 13 11 11 11 11 10 11 11 10 11 11 11 10 10 9 9 9 8 6 7 7 8 10 11 8 8 12 15 13 9 8 6 5 5 7 8 8 8 7 7 7 7 9 8 8
6 12 13 11 9 8 9 10 10 11 10 9 8 7 6 6 7 9 11 10 6 6 7 7 8 9 8 9 9 8 8 7 6 9 11 10 10 10 8 7 6 5 6 11 12 13 15 15 17 16 15 14 13 11 10 10 11 10 10 11 11 10 10 10 10 9 8 8 8 7 6 7 9 10 10 10 9 7 10 13 12 10 7 5 5 5 6 8 8 10 9 9 9 7 9 8 9
10 10 12 12 10 10 10 9 9 10 10 7 6 6 7 8 7 7 8 8 9 8 9 9 7 6 7 8 8 8 8 7 7 7 9 9 7 6 4 3 4 5 4 8 11 12 14 15 16 16 15 14 13 12 11 10 10 9 9 10 10 9 9 9 8 7 7 8 9 8 7 8 9 10 9 9 10 9 10 10 9 10 8 6 6 5 5 8 9 10 9 9 10 8 11 12 10
10 10 11 10 9 10 9 9 8 9 8 5 5 6 6 7 5 10 7 4 12 10 8 11 8 5 6 8 8 7 7 6 7 7 6 7 5 5 5 4 5 6 6 7 10 11 13 14 15 15 14 13 12 12 11 10 9 10 9 8 9 9 7 6 6 7 7 8 9 8 8 8 9 10 10 9 8 8 8 7 7 9 9 7 5 4 2 7 11 9 8 10 11 11 13 13 11
9 11 10 8 9 8 6 8 8 7 5 4 6 6 6 6 6 13 10 3 9 12 9 10 9 8 6 8 9 6 6 5 6 7 6 6 5 4 6 6 5 6 7 5 8 9 10 13 13 13 12 12 12 11 11 10 9 9 9 8 8 8 8 6 6 7 8 8 9 10 12 10 9 10 12 11 8 8 8 6 9 10 10 9 6 5 3 6 10 9 9 9 11 12 13 13 11
9 12 11 6 7 8 6 6 6 5 5 5 6 5 5 4 4 9 11 6 5 10 11 9 7 8 7 7 8 6 6 5 6 6 7 7 6 5 6 6 4 5 5 3 6 7 8 11 13 13 13 12 11 11 11 10 10 9 9 8 7 8 8 7 7 7 8 8 9 12 15 14 10 9 12 13 12 10 8 8 10 10 10 10 8 8 5 4 7 11 10 9 12 14 13 13 11
11 12 11 9 6 8 9 7 5 3 3 5 5 4 4 4 4 7 9 3 2 8 11 9 7 7 8 8 7 6 5 5 7 7 7 7 8 8 7 7 5 5 3 1 4 6 5 6 10 13 13 13 11 10 11 10 9 9 8 8 7 8 8 8 8 8 8 7 9 9 10 11 9 8 9 11 14 13 10 9 10 10 10 10 9 9 7 4 5 8 10 12 12 11 11 11 9
13 10 8 11 7 7 9 7 5 2 2 4 3 3 2 4 5 7 10 6 2 5 10 9 7 6 7 8 7 6 5 5 7 7 7 6 7 10 10 8 5 6 5 3 5 5 2 2 7 10 9 12 11 9 11 11 10 8 7 7 7 7 8 9 9 9 9 8 8 8 6 6 7 9 9 11 12 12 11 11 12 13 13 11 10 9 7 7 6 6 8 11 11 9 11 10 8
8 10 7 9 7 6 9 7 4 2 2 4 3 3 4 5 5 5 6 6 3 3 9 8 7 6 6 7 7 6 6 6 7 6 7 7 8 9 11 9 7 8 6 6 7 6 3 3 7 9 7 9 10 8 11 12 11 10 9 9 9 9 8 9 10 11 10 10 10 10 10 8 8 11 13 14 13 12 11 12 13 13 14 13 12 9 7 9 9 8 8 10 12 13 14 13 12
5 8 7 7 6 6 12 10 5 3 3 4 2 1 3 3 5 4 3 5 1 1 7 7 7 7 6 7 7 7 6 8 8 5 6 8 8 9 10 11 9 9 7 7 10 8 5 5 7 8 7 8 8 7 9 10 10 11 10 11 12 12 11 11 11 12 12 12 12 12 13 13 12 13 15 15 16 15 13 14 13 11 12 15 16 12 9 11 10 11 15 14 16 18 17 18 17
8 6 5 5 7 8 11 11 5 3 3 1 1 1 2 3 4 3 1 2 1 2 5 7 8 7 6 6 6 6 6 9 10 8 7 8 9 9 10 11 11 11 9 8 9 9 7 8 8 8 9 7 6 7 8 9 10 10 11 12 13 14 15 15 15 15 14 14 14 15 16 16 16 15 15 16 17 17 15 16 15 13 14 14 17 17 13 13 11 13 17 15 15 16 15 16 15
6 5 6 5 8 10 9 10 5 4 5 1 3 3 3 4 3 1 1 3 2 3 4 6 8 7 7 5 5 6 5 6 8 9 10 8 9 9 9 10 11 11 10 9 8 7 7 8 8 9 11 11 10 10 11 12 12 13 14 14 14 15 16 17 18 18 18 16 15 16 17 18 18 16 16 17 18 18 17 17 17 15 14 14 16 21 17 16 14 14 15 13 12 11 11 13 10
1 2 7 5 11 12 8 10 8 8 7 2 2 5 3 5 2 1 2 1 2 3 4 5 7 6 7 6 5 5 4 4 5 7 8 8 8 8 8 9 10 10 9 9 9 8 8 7 7 7 9 10 11 11 12 12 11 11 12 14 14 14 15 15 16 17 18 18 16 16 18 18 17 16 15 17 17 18 18 18 19 17 15 15 17 20 17 16 15 13 12 12 12 11 11 12 10
2 2 4 2 12 14 11 11 12 12 8 4 3 5 2 5 2 2 2 2 2 4 5 4 6 7 7 8 6 4 5 6 6 7 8 9 9 8 8 8 9 9 8 9 9 8 8 7 7 7 7 8 8 9 9 9 8 7 8 10 11 12 12 12 12 14 15 15 15 15 16 16 15 14 14 15 16 17 17 18 19 18 17 17 17 18 16 16 16 13 12 11 11 12 11 11 10
8 5 4 3 8 10 12 11 13 14 7 4 2 3 2 3 2 3 3 2 2 2 4 4 5 6 7 7 6 5 6 7 8 9 9 9 9 9 9 8 9 9 8 9 8 8 8 7 7 7 7 8 8 7 7 7 7 7 7 8 9 10 10 10 11 13 13 13 13 14 15 16 15 14 14 15 16 17 17 18 18 19 19 19 19 19 17 16 16 14 13 12 12 12 12 11 11
8 8 5 4 8 8 12 13 14 14 7 6 3 2 1 2 1 3 7 6 2 0 3 5 4 5 6 7 7 6 7 7 8 9 9 9 9 9 9 9 10 9 8 9 8 7 8 8 8 8 7 8 8 7 7 8 8 8 9 9 9 9 9 10 11 12 13 13 13 14 15 17 16 16 16 15 16 18 18 17 18 19 20 20 19 20 19 16 17 15 13 13 12 12 12 12 12
8 7 7 3 8 8 12 15 15 13 7 5 2 0 1 2 4 6 1 5 2 1 2 3 4 5 5 6 8 7 6 6 7 8 8 9 8 9 9 9 11 9 7 8 8 8 7 7 6 6 6 7 8 8 7 7 8 9 8 8 8 9 10 10 11 12 14 14 13 14 15 17 18 18 17 16 18 20 20 20 20 20 20 19 19 19 18 18 19 17 13 12 12 12 13 13 14
8 9 7 2 7 9 13 15 15 11 6 4 5 3 3 4 4 10 11 7 2 3 2 2 4 4 5 6 6 7 7 6 6 7 8 8 9 8 9 10 11 8 7 6 6 6 5 4 5 6 6 6 7 7 7 6 7 7 7 7 8 10 11 10 11 11 12 13 13 13 14 16 17 18 18 18 19 20 21 22 22 21 21 20 18 19 18 17 18 18 15 14 13 12 13 13 16
8 9 6 3 4 5 8 11 12 10 8 7 8 5 3 6 4 6 9 9 7 6 4 3 4 3 6 6 5 6 7 6 6 6 7 8 9 9 9 11 11 9 7 6 4 4 4 3 4 5 5 5 6 6 6 6 5 5 5 6 7 10 11 11 10 8 9 12 11 10 13 14 15 18 19 20 21 20 19 21 23 22 22 20 19 19 20 18 17 18 17 16 14 13 13 13 14
8 12 8 5 4 8 12 10 11 11 9 8 8 4 5 6 6 5 5 7 8 7 6 6 5 5 6 6 6 6 6 6 6 6 6 7 8 8 9 9 11 10 6 5 5 4 4 3 3 3 2 2 4 4 4 4 4 4 5 6 6 8 9 10 9 7 8 10 10 10 12 13 14 16 19 21 22 20 18 19 20 21 22 22 21 21 22 21 18 18 18 17 15 14 14 14 13
9 8 3 6 8 16 17 11 9 7 4 8 9 2 4 7 8 7 6 7 7 7 7 7 7 6 7 6 6 6 6 6 6 6 6 8 9 9 10 9 10 10 7 5 5 4 4 3 3 3 1 1 2 2 2 2 3 4 4 5 6 7 6 6 7 7 9 8 7 9 11 13 14 16 18 19 20 19 20 20 19 21 22 21 22 22 22 21 20 18 18 17 16 15 15 16 15
6 3 5 6 13 14 13 10 6 2 2 9 10 4 2 5 8 9 9 9 8 7 7 7 6 5 6 6 6 6 7 6 5 7 6 8 10 9 10 10 9 10 8 7 6 5 5 3 3 2 2 2 2 1 1 1 2 4 5 5 6 7 6 7 8 9 11 10 8 10 13 14 15 17 19 19 19 19 20 21 21 22 20 19 21 24 23 22 21 19 18 18 17 15 16 17 17
2 5 5 6 12 12 9 7 4 1 5 6 6 6 5 4 6 10 11 9 9 8 7 7 6 5 5 7 7 6 7 7 6 6 7 8 9 10 10 10 10 10 9 8 8 7 7 6 5 4 4 3 1 0 1 3 3 4 5 5 6 6 7 8 9 10 9 9 10 11 13 13 14 16 18 18 18 19 19 20 21 21 20 19 22 26 26 23 21 20 19 20 20 18 17 17 18
5 2 8 4 9 8 3 2 2 3 5 1 4 8 7 3 5 9 9 8 8 9 8 8 7 6 5 6 8 7 7 7 7 7 7 8 9 10 10 10 10 10 9 8 8 7 7 7 7 6 6 5 4 4 2 3 4 3 3 4 5 5 7 8 9 9 8 8 9 10 11 12 13 15 16 16 16 17 17 19 20 20 19 20 22 28 28 24 21 20 18 19 20 19 18 18 19
2 3 3 2 3 4 2 2 2 6 4 3 7 8 6 2 5 7 8 8 8 8 7 7 7 7 6 6 7 7 7 7 7 7 7 8 9 10 10 9 9 9 9 9 8 8 7 7 7 7 7 6 6 6 5 5 4 4 3 4 5 6 8 8 7 7 7 9 10 10 11 12 12 13 15 16 17 17 17 19 21 22 22 21 22 24 25 23 22 21 21 21 20 19 18 18 20
2 2 3 5 2 5 6 5 5 4 2 6 14 12 7 5 4 6 5 5 6 7 6 6 7 7 7 7 7 8 7 6 7 7 7 8 9 9 9 9 9 8 8 8 8 8 7 7 7 7 7 7 7 7 7 7 5 5 5 4 4 6 7 7 7 7 8 9 11 12 12 12 10 11 14 15 17 18 18 21 23 23 24 24 24 24 24 24 21 20 22 22 22 21 20 19 19
8 4 5 5 1 5 4 4 3 0 1 6 11 8 5 4 1 4 4 2 4 7 6 7 9 8 9 8 8 8 7 7 7 6 6 7 7 8 8 8 8 7 7 7 7 7 7 7 6 7 7 7 7 7 6 7 7 6 7 6 6 6 6 6 7 7 8 9 10 11 12 13 12 11 13 15 17 18 19 21 22 22 24 27 28 29 28 27 24 22 22 22 22 21 20 20 20
8 6 7 4 2 3 2 0 1 3 4 5 4 7 2 3 6 3 5 4 5 7 6 8 10 10 8 6 7 7 6 7 7 5 5 5 5 6 6 7 6 6 6 6 5 5 6 6 6 6 6 6 6 6 6 6 7 6 7 7 7 7 7 7 6 7 7 7 8 9 11 13 13 13 14 16 16 16 17 20 23 24 25 26 26 27 27 26 26 26 24 23 22 20 19 20 20
7 8 7 4 3 2 4 4 5 6 5 8 13 11 3 1 6 6 5 6 7 8 7 9 8 9 9 7 8 8 6 7 6 4 4 4 4 5 6 5 5 5 6 5 5 4 5 6 6 6 6 6 6 6 6 6 6 6 6 7 7 8 8 8 8 8 8 8 8 9 10 11 12 12 13 14 15 15 16 18 23 24 23 23 23 24 24 23 24 25 25 25 23 19 18 19 19
4 7 8 6 4 4 5 5 6 5 2 6 9 7 3 4 2 6 4 5 7 9 8 9 8 9 10 8 8 8 9 7 5 4 4 4 5 6 6 5 4 4 5 5 4 4 4 5 5 6 6 6 7 7 6 6 6 6 6 7 7 8 8 9 9 9 9 9 10 10 11 11 11 12 11 12 14 15 15 16 19 20 20 21 22 22 22 22 22 22 22 23 22 20 20 20 19
3 6 9 6 5 5 7 7 8 6 2 5 4 3 2 1 4 6 2 4 6 8 8 9 9 9 9 7 5 7 8 7 6 5 4 4 5 5 5 5 5 4 5 5 3 4 4 4 5 5 6 5 7 7 6 7 7 7 7 7 7 8 9 10 10 10 10 10 11 11 12 12 12 13 12 12 13 14 13 13 16 18 18 18 19 20 20 20 20 21 21 21 20 21 24 23 21
1 3 8 6 7 9 8 8 8 8 4 3 4 4 3 1 4 5 3 4 5 8 9 10 9 9 8 7 7 8 9 8 7 5 4 5 5 5 5 6 5 4 5 4 2 3 4 4 4 5 5 5 6 7 7 7 8 8 8 8 8 9 10 11 11 12 12 12 12 12 13 13 13 14 13 12 12 12 12 13 15 17 17 17 17 18 18 18 19 21 23 22 21 20 22 21 22
3 3 6 5 6 9 6 5 6 7 4 1 5 8 8 4 2 4 6 6 8 9 10 10 10 10 9 7 6 7 10 9 8 6 4 4 5 5 5 5 5 3 3 3 1 2 4 3 3 3 5 6 6 7 8 8 9 9 9 9 10 11 11 12 12 13 14 14 13 13 13 13 13 14 14 13 12 12 12 13 14 15 15 15 16 16 17 18 19 20 23 25 26 22 20 20 22
8 5 7 5 4 5 4 4 5 5 3 1 3 5 7 6 4 7 9 7 8 9 9 10 10 10 8 7 7 10 12 9 7 6 5 5 6 6 5 5 6 2 0 3 2 0 4 3 2 2 4 5 6 7 8 9 9 10 10 11 11 12 12 12 13 14 14 14 14 14 14 14 14 14 14 14 13 13 12 12 13 15 15 16 16 15 17 18 20 21 22 23 25 24 22 22 25
8 5 8 7 4 3 3 4 3 4 5 2 2 0 2 2 6 12 12 8 8 9 9 10 10 10 8 7 7 10 10 7 7 7 6 5 7 7 6 6 6 3 2 3 2 2 3 3 2 3 4 6 6 7 8 9 10 10 11 12 12 13 13 13 13 14 14 14 15 15 15 15 14 14 14 14 15 15 15 15 14 15 16 16 15 15 18 21 22 23 23 22 21 21 23 25 27
7 6 7 7 5 4 4 4 3 3 2 0 2 2 1 1 6 12 13 11 11 11 10 9 9 10 9 7 7 7 9 8 7 8 7 7 7 7 7 6 5 3 2 3 4 5 6 4 4 5 6 6 7 8 9 9 10 11 11 12 13 13 13 14 14 14 14 15 15 15 15 16 15 15 15 16 16 16 17 16 15 15 15 16 15 15 17 20 22 23 23 24 23 21 22 25 27
7 6 6 7 5 4 5 4 4 4 3 2 1 2 1 1 3 10 12 11 12 15 14 11 10 12 11 9 9 7 8 8 7 8 10 9 6 6 7 7 4 2 1 2 5 6 7 7 6 6 7 8 8 10 10 11 11 11 12 13 13 14 14 14 14 14 15 15 15 15 15 15 16 17 17 17 17 16 16 15 14 15 17 17 17 17 17 18 20 22 22 23 24 23 23 26 28
Wind_Direction
154 152 150 166 164 140 143 219 219 188 248 287 296 311 286 356 307 186 158 165 189 114 62 76 67 31 54 84 76 64 51 42 39 84 101 125 144 146 135 130 133 131 132 132 131 131 132 134 133 135 137 139 139 138 140 141 142 141 141 141 141 139 134 130 128 125 124 122 117 111 107 103 106 107 105 98 88 81 80 86 91 90 90 94 94 95 94 91 93 93 97 102 102 102 104 105 105
162 168 160 156 129 96 22 327 326 353 335 297 30 356 326 335 318 249 176 190 159 126 103 90 90 68 69 93 80 59 58 60 68 79 107 136 141 136 133 134 134 133 134 132 130 130 132 134 132 135 138 140 139 137 138 140 142 141 139 139 139 136 133 131 128 126 123 120 114 110 107 108 110 109 107 101 89 78 76 79 89 91 91 98 98 96 94 92 98 99 102 106 108 110 106 102 99
164 174 159 137 100 79 285 344 328 338 12 332 30 347 324 333 332 324 265 210 126 126 110 94 86 67 64 76 65 57 65 67 84 94 119 136 132 130 136 134 132 133 133 132 131 130 132 134 132 135 138 140 138 136 136 138 140 139 137 136 136 135 133 131 127 124 121 118 114 111 112 113 114 111 109 107 94 84 81 79 83 86 91 102 102 100 99 100 105 105 108 110 115 117 109 104 101
152 168 155 139 67 92 141 0 288 331 64 139 32 332 2 2 339 302 262 189 125 137 104 86 58 34 57 70 67 68 67 71 96 108 122 130 130 133 136 132 131 131 132 132 129 130 134 135 133 134 137 137 136 136 135 136 137 137 136 135 135 135 132 129 126 123 120 118 116 117 117 115 116 114 113 111 100 90 85 83 82 82 90 105 106 107 108 110 111 111 112 113 118 122 122 116 109
213 156 130 113 18 31 347 301 239 60 65 187 129 101 72 56 1 316 297 333 71 65 47 56 53 21 49 53 48 50 41 57 91 108 119 126 131 133 132 130 130 130 130 131 129 131 135 135 133 133 135 136 137 136 136 137 136 136 136 135 134 132 131 127 125 122 121 120 119 118 116 114 115 116 115 112 104 97 90 89 90 81 85 101 107 111 113 115 117 119 119 116 120 126 131 124 117
218 124 103 86 30 345 309 302 293 56 44 18 100 108 83 79 29 313 315 340 27 41 27 23 37 57 65 52 56 51 27 46 80 107 120 130 134 131 131 132 130 129 129 130 130 132 136 136 133 133 134 135 136 136 137 135 135 136 135 134 131 130 128 126 123 124 124 121 117 113 112 115 117 117 115 108 100 97 96 96 96 87 85 97 104 109 113 114 117 119 120 119 122 128 132 129 127
189 144 111 84 29 332 271 345 328 26 26 17 84 85 70 71 351 0 336 351 35 39 25 8 343 72 79 36 72 57 42 28 275 116 125 135 136 132 131 131 128 129 128 129 130 134 138 136 135 134 135 134 134 134 134 133 134 134 133 132 131 130 127 126 125 125 123 118 115 113 113 116 116 115 111 104 99 102 104 104 106 106 101 107 110 112 118 119 122 121 120 121 122 129 131 132 134
193 190 196 186 319 161 241 39 30 25 42 25 82 92 97 102 30 75 28 25 59 39 23 349 281 78 77 50 82 29 46 48 284 120 129 137 135 133 132 131 129 129 128 129 132 136 137 137 136 135 136 135 134 133 133 133 134 132 130 131 131 130 128 128 128 126 122 119 119 119 118 115 115 114 109 102 101 107 102 99 107 113 115 118 116 115 120 122 125 124 125 128 127 130 127 127 135
199 232 224 259 286 152 161 72 38 23 68 24 76 100 110 110 78 84 76 62 92 95 11 98 303 89 83 70 78 351 59 43 299 125 132 136 135 133 133 133 130 129 129 131 134 136 136 138 137 136 138 136 136 135 134 134 133 132 133 134 132 130 131 130 127 126 123 123 123 121 121 120 122 121 113 103 98 93 82 81 91 103 113 116 116 118 125 123 122 122 127 135 137 136 130 130 134
181 246 234 282 285 0 75 88 80 340 97 40 75 96 93 100 95 93 87 67 86 90 27 9 55 81 95 68 77 326 12 349 345 131 135 137 138 136 133 133 131 130 130 133 136 136 137 139 138 138 140 139 139 138 136 134 133 135 137 136 134 133 133 130 128 127 127 127 125 123 126 129 128 123 113 104 99 71 62 65 68 80 88 93 109 125 134 128 126 125 129 134 136 139 136 137 134
208 237 224 257 287 11 38 78 98 32 68 77 75 92 105 108 96 86 77 64 67 72 45 350 50 76 90 60 34 335 350 353 17 132 138 141 141 135 131 131 132 132 131 135 136 137 139 140 139 140 141 142 143 140 138 136 137 139 139 138 136 138 136 133 131 131 132 130 129 129 135 137 130 124 121 117 114 73 56 52 52 43 43 73 107 135 141 133 131 129 133 137 137 142 141 143 140
264 261 219 244 321 27 36 64 102 123 55 77 107 144 136 124 109 98 99 90 75 67 43 26 86 101 75 68 347 318 339 41 135 141 142 144 139 131 130 130 131 130 132 136 136 139 141 141 141 141 142 143 144 143 142 142 142 142 141 143 141 143 142 138 136 137 138 136 137 139 142 142 138 140 137 131 138 104 47 40 43 20 351 341 180 159 153 143 138 133 142 147 146 149 145 149 149
268 290 291 293 11 38 40 45 127 136 110 68 105 213 192 117 111 97 86 74 62 68 43 34 111 130 73 86 250 307 331 147 145 152 148 141 135 130 129 129 129 129 132 137 137 141 143 144 144 143 144 145 146 144 144 144 145 145 147 150 149 149 147 144 143 144 146 143 143 146 148 150 151 154 152 148 167 170 34 29 33 12 339 308 269 192 168 158 159 154 158 161 155 154 153 156 155
294 311 306 308 36 44 36 12 48 88 97 117 128 203 232 71 81 79 76 71 48 59 62 15 30 93 101 114 151 111 157 141 138 161 153 133 128 129 129 127 127 130 134 139 140 143 145 147 147 148 149 149 150 146 146 148 147 149 151 154 154 154 150 147 148 149 150 150 149 154 157 163 166 163 162 161 173 182 37 19 10 349 329 308 276 233 199 181 180 173 170 172 160 156 163 166 162
281 295 291 312 40 34 26 9 26 64 74 92 108 150 76 69 82 86 96 116 140 280 108 38 2 50 103 98 131 119 132 139 149 165 131 107 119 126 122 120 125 132 135 140 142 146 148 149 151 152 152 153 155 151 152 155 154 155 156 158 157 155 151 149 150 151 152 154 153 159 166 174 176 170 169 165 177 196 0 356 348 334 325 307 274 255 236 215 197 184 177 179 173 167 170 174 171
256 281 300 4 40 20 14 4 13 54 42 52 64 54 57 59 85 92 119 141 126 320 49 64 17 32 89 85 124 131 132 145 151 133 105 100 117 118 112 115 123 131 136 142 145 148 150 151 154 155 155 158 158 157 159 162 160 162 163 163 162 157 155 152 152 155 157 158 156 165 176 179 181 177 175 178 195 217 248 321 337 331 327 305 279 261 242 234 218 196 187 186 183 184 180 180 179
270 276 330 27 40 25 14 6 7 45 46 37 58 86 79 40 59 87 110 110 100 73 51 63 40 40 87 91 118 145 138 135 123 104 104 108 106 99 106 119 124 132 138 144 147 150 153 154 157 158 162 161 159 160 160 163 166 165 166 166 162 160 159 157 156 161 165 160 160 175 182 178 189 199 200 219 233 243 259 292 323 329 334 314 297 270 245 240 238 206 182 186 186 195 197 194 192
286 306 40 38 38 32 13 13 16 38 62 36 25 78 85 72 81 110 111 88 96 96 73 73 72 53 76 102 123 122 106 110 107 109 127 127 107 101 119 133 134 140 143 146 151 155 157 158 161 161 165 164 160 163 159 168 173 164 166 167 163 165 162 165 164 166 169 162 165 181 183 188 206 220 236 238 241 258 261 265 296 322 330 319 320 298 255 239 237 205 181 193 194 199 201 197 201
315 12 51 53 56 55 20 20 28 29 64 86 20 49 59 61 80 130 102 78 94 100 91 87 88 70 76 118 133 115 107 121 134 146 139 118 105 118 141 142 142 149 149 154 158 159 161 163 167 165 168 168 164 167 164 174 177 165 168 166 166 174 167 169 170 169 172 175 194 203 189 202 214 223 240 236 246 264 258 260 276 296 300 301 309 294 245 229 227 208 193 199 206 202 200 198 204
355 45 55 70 77 70 38 35 45 31 45 63 42 39 50 46 21 74 87 81 87 89 94 102 106 113 122 126 129 124 123 132 142 140 102 88 99 135 149 143 150 158 156 161 160 163 165 164 169 167 168 171 170 172 170 174 174 167 170 169 171 178 177 176 176 178 181 186 204 215 201 211 219 219 222 224 248 256 245 255 259 253 273 283 283 277 242 231 225 215 206 200 215 206 207 218 212
23 56 55 64 71 64 44 39 44 32 37 49 40 33 53 60 13 58 98 92 77 79 93 108 120 127 122 105 102 125 134 145 154 139 112 122 156 164 157 154 170 171 159 160 161 167 167 165 169 167 168 173 174 173 175 177 174 172 173 174 175 177 182 184 186 189 190 192 201 212 213 220 223 220 227 229 246 252 237 245 254 246 259 275 270 263 243 237 228 220 215 206 222 221 225 230 216
47 67 65 62 65 66 52 41 34 28 36 42 37 26 40 83 34 48 90 95 87 122 102 101 120 126 119 112 122 132 137 154 155 137 130 150 163 162 166 164 180 189 162 157 162 169 169 169 170 169 172 175 178 177 179 180 174 180 180 177 180 181 183 184 190 195 196 198 201 211 222 233 230 228 239 236 240 263 247 241 249 247 250 262 250 236 225 231 230 225 221 214 227 236 240 235 211
84 76 70 67 63 70 59 47 38 37 45 31 30 29 16 60 54 44 82 102 112 109 97 108 116 113 119 124 132 131 129 138 121 112 118 136 148 155 170 157 165 210 176 155 161 170 173 173 169 169 172 175 181 180 180 180 176 185 185 180 183 184 188 190 191 194 200 201 203 214 223 239 241 234 238 235 227 256 267 251 249 247 238 229 217 215 213 223 229 226 227 225 227 229 238 237 215
86 83 73 72 62 71 70 61 51 52 56 27 31 50 23 42 65 71 79 100 100 84 95 117 113 108 123 125 128 127 126 128 109 96 104 120 136 140 146 125 158 208 194 160 161 169 178 173 165 168 171 175 181 180 182 184 181 187 189 187 188 192 196 198 197 202 211 210 210 217 221 240 254 255 250 239 226 240 268 261 257 253 229 218 221 210 211 229 230 224 236 243 234 230 231 232 225
74 79 74 77 65 68 75 78 70 65 64 28 33 45 27 17 42 90 88 93 102 102 107 109 112 114 114 115 115 116 119 118 113 116 117 123 132 126 131 141 166 200 215 186 163 164 178 170 165 172 172 174 178 178 184 186 185 187 192 192 193 204 209 205 206 212 224 223 216 213 219 236 254 266 266 255 245 252 265 258 278 270 225 211 208 174 194 225 221 225 250 258 249 247 236 226 225
76 87 81 82 83 80 81 85 77 75 74 27 34 26 24 11 16 90 113 189 117 115 113 106 116 114 103 109 108 111 119 118 121 137 147 136 142 143 145 153 159 194 215 185 155 166 178 168 170 179 175 177 181 180 185 190 189 187 194 198 194 203 212 212 211 220 231 225 221 225 228 233 242 260 276 286 287 270 264 261 284 280 227 210 208 209 241 214 219 244 265 264 252 254 246 227 220
94 108 110 105 104 115 116 100 93 87 75 37 46 23 17 39 11 83 121 184 139 110 107 106 113 112 112 108 104 113 119 132 145 152 161 154 157 161 165 170 158 189 207 147 150 166 174 174 179 184 181 180 184 185 187 191 192 191 195 199 202 205 210 214 211 228 244 239 243 244 230 224 228 249 273 290 298 284 268 261 268 271 239 224 219 222 234 218 238 251 254 258 247 250 248 221 214
118 119 122 124 117 124 126 120 118 97 74 57 50 2 355 51 31 60 96 102 64 105 112 111 111 109 113 114 113 118 116 139 146 150 165 163 166 176 184 185 171 193 216 134 151 152 172 181 170 179 182 179 189 191 186 190 194 198 202 201 210 211 211 214 215 227 238 243 258 254 223 212 221 243 264 275 292 299 292 279 272 276 265 248 233 226 231 236 250 238 232 245 243 249 249 219 215
137 137 132 137 145 142 135 128 120 93 86 89 29 338 37 60 41 48 78 71 358 128 117 107 111 107 105 115 117 116 119 136 137 147 166 168 174 179 183 187 187 202 220 211 163 138 146 108 136 166 171 169 186 190 182 186 184 186 195 201 212 209 202 204 213 223 225 233 255 258 235 212 210 231 248 251 269 286 286 284 281 278 275 266 244 229 237 235 234 231 226 245 244 242 250 233 224
159 156 153 149 160 158 132 119 129 120 75 81 33 8 67 76 60 35 66 82 275 190 113 102 107 102 98 104 109 123 131 132 130 142 159 164 172 173 176 183 190 201 221 227 194 158 138 120 142 163 159 157 176 182 179 184 186 189 196 208 223 227 224 220 222 232 239 250 262 262 252 241 221 223 238 242 246 259 268 272 277 281 279 281 269 245 252 250 243 237 217 231 235 227 240 233 218
208 180 181 179 171 151 130 128 156 148 82 72 64 8 31 64 76 42 34 73 300 250 99 105 104 93 93 99 110 129 128 118 117 124 149 156 159 162 169 178 186 191 205 226 219 205 189 192 175 170 170 165 179 197 197 199 205 212 217 224 235 242 248 250 247 246 252 259 263 260 254 251 242 235 244 247 245 251 258 258 263 277 272 275 279 266 249 247 245 231 214 213 218 218 228 225 214
211 203 220 208 155 135 126 131 150 136 127 129 277 296 16 44 62 48 12 37 7 57 83 102 105 101 101 99 107 112 109 116 127 143 159 158 155 159 166 172 178 181 186 202 214 218 220 225 220 209 208 201 202 219 224 225 227 233 240 243 248 252 255 257 257 256 259 266 267 263 258 255 251 249 251 249 248 250 252 254 257 268 262 256 275 277 254 242 243 230 220 214 214 217 223 224 214
217 202 271 277 134 133 133 129 138 157 150 184 306 303 346 39 58 67 52 11 -0 69 69 84 95 110 115 109 105 99 97 111 131 147 152 151 150 154 160 165 171 175 180 185 189 201 212 221 228 228 227 232 239 244 245 245 249 253 255 256 257 261 264 263 262 260 262 265 267 266 262 259 258 258 255 249 250 249 248 255 258 265 263 249 268 277 259 245 244 233 227 217 217 228 236 237 221
228 185 290 322 115 130 144 139 160 180 158 136 259 259 316 37 26 288 70 322 254 105 81 78 82 92 106 109 102 106 128 124 130 140 135 136 136 140 148 154 163 168 173 181 186 195 202 205 216 224 226 233 239 243 244 245 252 256 256 256 256 260 265 266 265 262 262 262 261 265 267 266 263 262 261 253 250 249 248 255 258 260 259 252 262 272 264 254 252 243 234 222 220 228 231 236 224
272 227 303 52 125 135 146 155 165 167 153 126 201 258 14 51 327 309 75 245 266 82 91 95 90 90 94 99 102 119 136 122 122 129 125 129 134 135 138 143 152 157 163 174 183 191 198 203 211 219 221 224 227 229 230 234 242 248 253 256 256 256 258 260 262 264 266 262 256 258 264 267 266 265 263 258 255 253 251 254 259 259 256 257 259 265 266 261 260 257 249 240 231 227 227 231 224
282 309 331 77 111 113 128 149 148 143 137 111 160 278 66 93 285 326 359 342 -0 66 107 94 90 101 98 97 104 107 102 101 112 121 121 123 129 130 133 136 138 145 158 168 178 184 186 190 196 207 215 217 220 219 218 224 233 238 243 249 251 250 250 251 256 263 265 262 256 250 255 264 270 271 266 265 265 260 256 256 259 259 258 261 257 257 261 259 260 261 258 256 246 236 230 232 232
309 334 319 86 88 90 116 129 133 135 123 75 54 326 99 162 183 21 347 339 348 132 97 93 92 96 101 105 108 100 90 100 111 116 118 119 121 122 126 126 123 134 154 162 171 178 182 186 190 198 200 203 208 210 212 216 224 229 233 238 241 244 245 246 248 253 256 257 258 252 251 259 266 268 265 266 270 266 263 260 259 259 259 259 257 255 258 260 260 263 265 263 259 249 234 229 225
327 302 277 80 85 99 116 118 123 130 114 87 106 211 231 205 141 116 338 304 314 83 86 116 117 99 99 104 109 108 102 114 117 113 114 113 115 118 120 118 118 131 150 160 168 174 185 191 193 198 193 197 204 207 210 213 222 227 233 240 242 241 241 245 250 253 253 250 253 255 255 255 255 257 260 263 269 269 266 263 262 261 257 257 261 259 258 260 261 263 267 262 261 256 246 236 216
291 269 268 79 99 115 117 120 126 126 108 122 138 108 306 272 172 155 169 200 190 136 190 127 112 116 109 101 107 115 113 117 116 116 118 117 118 119 115 113 117 128 138 149 161 159 167 185 201 211 207 208 212 213 216 222 235 235 239 254 256 253 251 254 257 262 265 257 250 255 258 256 249 249 256 260 262 264 264 263 263 262 257 256 259 258 256 257 258 260 259 256 259 260 258 247 221
261 267 270 131 160 148 122 125 128 115 103 127 124 104 273 268 235 181 158 166 154 149 177 131 113 115 100 98 106 111 115 117 117 116 120 121 121 120 115 118 123 126 126 128 142 152 158 172 187 200 208 214 216 223 229 233 248 256 262 269 266 262 260 258 255 259 269 262 248 248 254 256 250 243 246 250 250 250 253 258 261 261 259 256 257 256 253 253 255 256 254 251 253 257 261 255 232
232 246 246 186 164 103 111 127 120 106 102 120 118 122 214 219 219 203 146 154 153 150 164 143 137 131 105 100 98 97 102 108 115 116 113 112 109 105 105 113 118 121 125 118 126 147 144 134 139 160 207 212 204 225 239 225 232 259 273 276 272 267 262 260 263 262 263 258 249 248 253 257 253 246 244 244 246 247 247 252 256 255 254 255 258 258 257 255 254 254 254 251 247 249 255 260 252
241 261 293 166 127 98 116 134 126 127 137 145 145 173 219 193 202 195 166 172 162 154 163 152 148 142 125 115 106 100 99 101 110 114 114 110 103 98 96 95 99 108 114 105 109 123 106 99 117 133 161 115 168 215 236 206 206 226 243 261 269 270 269 272 279 275 271 269 254 245 250 252 250 251 252 248 247 248 246 246 250 251 250 252 257 257 257 255 252 252 253 251 247 244 248 258 263
247 22 30 132 123 116 134 140 147 180 138 152 172 214 242 196 205 193 180 178 159 158 169 153 141 142 137 123 114 111 110 108 105 103 105 103 101 98 94 91 89 91 92 91 89 80 72 73 87 85 64 87 158 205 221 206 199 220 231 245 256 264 275 280 285 289 286 280 268 256 257 255 251 255 258 253 249 250 249 247 250 254 251 251 255 254 252 251 252 252 252 252 250 247 246 251 259
241 113 230 202 122 127 140 143 193 246 94 137 184 218 247 245 201 186 185 172 158 171 174 157 155 164 151 125 124 132 126 122 116 105 99 94 96 94 91 91 90 88 87 89 86 75 69 61 56 53 45 55 59 8 238 244 265 256 240 244 254 261 270 276 286 298 297 277 269 268 266 262 258 258 257 252 249 251 252 248 246 247 246 247 253 255 253 250 252 253 253 255 254 249 246 247 253
258 203 227 208 99 108 114 180 209 50 68 123 218 214 241 265 152 173 186 173 176 182 171 165 167 162 150 138 143 144 129 121 114 102 96 89 88 87 87 87 87 89 87 83 81 75 70 61 56 54 47 42 29 25 2 288 305 297 256 241 252 257 257 266 278 286 287 273 263 264 268 269 266 265 261 256 254 253 251 248 245 244 245 247 252 257 255 250 251 252 252 255 254 248 245 246 250
257 324 265 195 117 103 54 312 61 65 62 281 254 227 241 266 151 169 191 187 192 181 166 177 171 157 160 159 148 130 118 114 104 97 93 88 85 83 84 84 81 83 84 84 83 77 72 64 57 54 48 41 32 24 12 355 343 321 300 255 256 278 274 269 266 265 269 266 260 262 272 276 274 273 268 261 258 255 254 251 247 245 248 250 250 253 252 249 251 251 250 252 252 249 246 244 247
336 17 297 253 227 77 56 32 50 69 114 255 256 238 232 251 185 171 191 196 190 167 160 175 164 160 173 169 147 128 121 119 110 106 101 95 94 90 88 87 82 81 82 85 84 78 74 68 60 55 47 39 31 24 13 5 -0 341 334 320 297 309 303 281 270 271 269 262 264 267 266 267 268 270 268 263 258 254 253 253 251 250 252 252 248 246 247 249 249 250 254 252 248 249 248 244 246
291 275 256 238 82 55 65 72 65 331 243 261 269 260 244 280 287 180 173 184 183 159 160 176 167 176 190 172 141 133 134 129 120 116 116 112 110 106 101 98 93 86 78 75 79 79 77 67 57 55 46 35 24 15 12 5 1 358 351 348 340 328 314 293 280 280 271 257 263 270 267 264 261 256 258 261 260 256 253 253 254 254 252 252 250 248 248 249 249 252 257 253 246 247 249 245 245
259 263 260 235 77 15 299 95 245 234 206 181 91 53 24 335 329 261 164 158 162 140 160 189 177 177 181 151 129 145 158 136 123 122 124 120 109 101 97 95 94 90 80 71 70 73 76 63 47 47 41 32 20 6 5 2 356 357 354 348 343 335 328 320 310 304 291 272 268 272 271 265 256 251 252 256 259 258 254 251 250 249 250 252 252 251 251 251 251 254 257 253 245 244 248 246 243
217 236 249 224 156 218 249 242 248 242 207 149 109 85 87 284 311 275 184 148 139 139 178 200 181 163 153 154 162 156 133 109 108 119 120 117 114 102 90 85 81 82 82 78 70 68 76 64 42 37 32 22 17 4 355 356 349 345 345 339 333 329 328 326 322 319 314 308 295 281 277 271 261 260 261 260 259 254 247 244 243 245 249 253 254 253 253 252 252 254 255 254 248 242 245 245 242
241 254 254 231 209 239 253 245 254 257 178 126 112 104 152 160 239 248 195 138 147 157 181 186 167 154 155 175 180 136 111 107 110 112 112 117 122 119 117 110 96 86 79 72 67 64 69 65 44 29 23 16 11 2 354 353 345 337 334 328 324 323 321 317 314 311 309 309 305 297 295 291 282 278 274 271 271 261 250 243 241 245 250 254 257 258 257 253 253 254 252 251 248 246 248 245 240
254 270 267 234 192 211 239 252 268 266 165 127 106 97 135 102 301 265 194 132 160 158 169 175 162 161 164 170 160 129 130 137 126 119 121 121 124 124 125 115 107 107 93 77 70 64 54 49 49 30 12 11 7 355 350 350 341 333 332 327 325 323 319 316 312 308 307 305 304 303 300 296 292 291 284 280 281 275 268 262 253 251 252 255 259 261 263 262 257 254 251 248 251 255 257 250 239
177 263 273 244 196 213 237 248 255 260 245 142 131 122 109 30 303 261 182 152 177 166 169 172 162 167 167 163 167 156 146 132 116 123 130 129 138 133 122 112 102 102 96 91 99 99 75 35 34 27 1 1 2 347 343 344 334 325 326 325 323 322 320 318 313 311 310 307 303 300 297 295 294 295 292 288 284 279 279 278 266 257 254 258 263 260 260 261 258 256 253 251 253 259 262 256 245
221 233 263 264 234 242 261 270 262 269 285 129 151 149 148 172 215 188 175 179 186 179 172 166 167 174 171 173 173 134 119 113 106 119 134 133 138 123 116 114 99 97 115 103 87 128 110 66 20 10 354 348 346 342 338 335 329 325 326 323 319 319 316 313 311 310 310 307 304 299 296 298 298 297 294 293 292 286 284 284 274 264 260 264 269 262 254 252 251 254 255 253 251 252 258 258 253
199 212 238 270 278 262 269 275 281 291 294 142 146 150 168 194 168 160 182 191 184 178 174 175 176 174 170 177 158 118 115 124 128 144 158 160 158 142 137 131 106 95 118 78 49 77 107 81 6 351 345 331 329 335 333 329 329 328 324 318 315 314 311 310 309 308 307 304 304 303 301 300 299 298 298 301 304 299 293 289 281 275 270 265 262 257 255 254 251 251 255 257 254 249 250 256 258
183 212 246 262 274 271 265 252 258 287 305 358 81 77 252 218 156 166 177 184 190 189 187 189 181 175 178 185 172 140 131 145 158 160 166 174 169 155 153 147 122 101 26 26 355 348 61 58 355 346 334 323 328 333 330 328 327 323 318 315 314 312 311 311 309 307 305 302 301 301 300 299 299 300 302 305 305 301 296 291 285 281 277 269 261 257 259 261 257 255 257 259 258 251 248 249 253
199 211 237 250 250 251 255 267 303 306 298 0 149 188 249 150 156 167 166 169 187 197 201 198 185 181 179 183 190 165 147 163 173 169 173 176 170 168 163 140 112 106 65 4 336 356 19 12 355 348 333 329 332 331 329 326 320 314 313 313 314 313 312 310 307 306 304 301 299 298 297 299 301 302 301 301 299 297 295 292 288 287 284 277 270 261 260 264 263 260 260 260 259 257 251 248 247
254 222 230 254 254 258 257 262 308 305 294 319 108 149 258 303 163 168 167 172 189 198 199 192 187 184 175 185 198 169 151 176 188 181 177 169 165 164 144 128 118 123 103 349 346 -0 357 347 346 338 329 330 330 328 327 321 315 311 310 311 312 311 310 308 308 307 305 301 300 301 301 301 300 299 299 299 297 294 293 294 295 295 294 287 275 265 263 264 264 264 261 258 258 260 257 251 247